Weather History for Manchester, NH

Change the Weather History Date:

Sunday, August 25, 2013

  Actual Average Record
Temperature  
Mean Temperature 68 °F -  
Max Temperature 82 °F 77 °F 96 °F (2007)
Min Temperature 55 °F 52 °F 38 °F (1987)
Cooling Degree Days 4    
Growing Degree Days 18 (Base 50)    
Moisture  
Dew Point 52 °F    
Average Humidity 58    
Maximum Humidity 89    
Minimum Humidity 25    
Precipitation  
Precipitation 0.00 in - - ()
Sea Level Pressure  
Sea Level Pressure 30.30 in    
Wind  
Wind Speed 2 mph (SW)    
Max Wind Speed 9 mph    
Max Gust Speed -    
Visibility 10 miles    
Events      
Averages and records for this station are not official NWS values.
T = Trace of Precipitation, MM = Missing Value Source: NWS Daily Summary

Daily Weather History Graph

Daily Weather History Graph

Search for Another Location

Airport:

Trip Planner

Search our weather history database for the weather conditions in past years. The results will help you decide how hot, cold, wet, or windy it might be!

Date:

Astronomy

Aug. 25, 2013 Rise Set
Actual Time 6:02 AM EDT 7:31 PM EDT
Civil Twilight 5:33 AM EDT 8:01 PM EDT
Nautical Twilight 4:57 AM EDT 8:37 PM EDT
Astronomical Twilight 4:19 AM EDT 9:15 PM EDT
Moon 9:51 PM EDT (8/25) 11:10 AM EDT (8/25)
Length of Visible Light 14h 28m
Length of Day
13h 28m
Waning Gibbous, 76% of the Moon is Illuminated
Aug 25
Waning Gibbous
Aug 28
Last Quarter
Sep 5
New
Sep 12
First Quarter
Sep 19
Full

Hourly Weather History & Observations

Time (EDT) Temp. Dew Point Humidity Pressure Visibility Wind Dir Wind Speed Gust Speed Precip Events Conditions
12:53 AM 57.0 °F 52.0 °F 83% 30.35 in 10.0 mi Calm Calm - N/A   Clear
1:53 AM 57.0 °F 52.0 °F 83% 30.34 in 10.0 mi North 3.5 mph - N/A   Clear
2:53 AM 55.9 °F 52.0 °F 87% 30.33 in 10.0 mi Calm Calm - N/A   Clear
3:53 AM 55.0 °F 52.0 °F 89% 30.34 in 10.0 mi Calm Calm - N/A   Clear
4:53 AM 55.0 °F 51.1 °F 86% 30.35 in 10.0 mi Calm Calm - N/A   Clear
5:53 AM 55.0 °F 51.1 °F 86% 30.38 in 10.0 mi Calm Calm - N/A   Clear
6:53 AM 55.0 °F 50.0 °F 83% 30.39 in 10.0 mi Calm Calm - N/A   Clear
7:53 AM 59.0 °F 51.1 °F 75% 30.39 in 10.0 mi NNW 3.5 mph - N/A   Clear
8:53 AM 64.9 °F 51.1 °F 61% 30.38 in 10.0 mi North 3.5 mph - N/A   Clear
9:53 AM 71.1 °F 53.1 °F 53% 30.39 in 10.0 mi Calm Calm - N/A   Clear
10:53 AM 75.0 °F 54.0 °F 48% 30.36 in 10.0 mi Calm Calm - N/A   Clear
11:53 AM 78.1 °F 53.1 °F 42% 30.33 in 10.0 mi Variable 3.5 mph - N/A   Clear
12:53 PM 80.1 °F 51.1 °F 36% 30.31 in 10.0 mi South 5.8 mph - N/A   Clear
1:53 PM 80.1 °F 48.0 °F 32% 30.30 in 10.0 mi WSW 5.8 mph - N/A   Clear
2:53 PM 81.0 °F 46.9 °F 30% 30.28 in 10.0 mi Calm Calm - N/A   Clear
3:53 PM 82.0 °F 43.0 °F 25% 30.26 in 10.0 mi WSW 5.8 mph - N/A   Clear
4:53 PM 82.0 °F 46.0 °F 28% 30.24 in 10.0 mi SSW 9.2 mph - N/A   Clear
5:53 PM 80.1 °F 50.0 °F 35% 30.23 in 10.0 mi SSW 8.1 mph - N/A   Clear
6:53 PM 78.1 °F 53.1 °F 42% 30.21 in 10.0 mi SSW 6.9 mph - N/A   Clear
7:53 PM 75.0 °F 55.0 °F 50% 30.21 in 10.0 mi SSW 4.6 mph - N/A   Partly Cloudy
8:53 PM 72.0 °F 55.9 °F 57% 30.21 in 10.0 mi SW 3.5 mph - N/A   Clear
9:53 PM 70.0 °F 55.9 °F 61% 30.19 in 10.0 mi South 4.6 mph - N/A   Clear
10:53 PM 68.0 °F 55.9 °F 65% 30.20 in 10.0 mi South 4.6 mph - N/A   Clear
11:53 PM 68.0 °F 55.9 °F 65% 30.19 in 10.0 mi South 4.6 mph - N/A   Clear